Voltar ao catálogo

THORAD AGENA D DEB

AtivoPO
NORAD 4754·DEBRIS·🇺🇸 United States

Lançado Apr 8, 1970 de Vandenberg Space Force Base

Loading…

Próximas Passagens

TLE

Source: Space-Track
1  4754U 70025DC  26224.90419030  .00002800  00000-0  95894-3 0  9994
2  4754  99.5897 194.8269 0014888  97.8546 262.4328 14.37110225841956

Acompanhe THORAD AGENA D DEB em tempo real com AllMySat

Download on the App Store